Location: Arcones
(41.1182°N, 3.7238°W)
Time: 23:05:07
(UTC+00:00)

Cosmos 1782 - Visible Passes

Search period start: 12 March 2026 00:00
Search period end: 22 March 2026 00:00
Orbit: 462 x 470 km, 82.5° (Epoch: 12 March)

Date Brightness Start Highest point End Pass type
(mag) Time Alt. Az. Time Alt. Az. Time Alt. Az.
12 Mar 5.6 04:04:05 10° ESE 04:06:08 15° E 04:08:11 10° NE visible
12 Mar 3.4 05:37:23 10° SW 05:40:31 29° WNW 05:43:41 10° NNW visible
13 Mar 2.5 05:07:36 20° SSW 05:09:51 59° W 05:13:24 10° N visible
14 Mar 2.8 04:38:05 38° SSE 04:39:15 65° E 04:42:47 10° NNE visible
15 Mar 4.2 04:08:23 30° ESE 04:08:41 31° E 04:11:52 10° NNE visible
15 Mar 4.3 05:42:24 13° W 05:43:27 14° WNW 05:45:25 10° NW visible
16 Mar 5.4 03:38:31 16° E 03:38:31 16° E 03:40:27 10° NE visible
16 Mar 3.5 05:12:31 26° WNW 05:12:36 26° WNW 05:15:39 10° NNW visible
17 Mar 3.0 04:42:33 43° NW 04:42:33 43° NW 04:45:19 10° N visible
18 Mar 3.8 04:12:27 35° NNE 04:12:27 35° NNE 04:14:40 10° NNE visible
19 Mar 5.0 03:42:18 20° NE 03:42:18 20° NE 03:43:42 10° NNE visible
19 Mar 4.7 05:16:17 12° NW 05:16:17 12° NW 05:16:55 10° NW visible
20 Mar 5.9 03:12:03 11° NE 03:12:03 11° NE 03:12:17 10° NE visible
20 Mar 4.5 04:46:02 17° NW 04:46:02 17° NW 04:47:14 10° NNW visible
21 Mar 4.6 04:15:43 19° NNW 04:15:43 19° NNW 04:16:52 10° N visible
